Location: Isle of Man Observatory
(54.1776°N, 4.6264°W)
Time: 14:03:45
(UTC+02:00)

ARIANE 6 FM1 Upper Stage - Pass Details

Date: 19 April 2026
Orbit: 526 x 601 km, 62.0° (Epoch: 19 May)

Event Time Altitude Azimuth Distance (km) Brightness Sun altitude
Rises 23:31:33 0° 291° (WNW) 2,700 7.3 -15.6°
Reaches altitude 10° 23:34:03 10° 304° (NW) 1,798 6.5 -15.9°
Maximum altitude 23:37:30 27° 3° (N) 1,061 4.6 -16.2°
Drops below altitude 10° 23:40:55 10° 62° (ENE) 1,779 5.1 -16.5°
Enters shadow 23:42:11 - 71° (ENE) 2,226 5.5 -16.6°
